User: anonymous   Login
Location: Clermont
(50.2608°N, 4.3172°E)
Time: 05:11:19
(UTC+00:00)
Language:

Tsikada Rocket - Orbit

View from above orbital plane
View from above orbital plane
View from above satellite
View from above satellite

Ground track
Ground track

The orbit data is extracted from the following two-line orbital elements,

1 23466U 95002D   20304.30557773 -.00000037 +00000-0 -54601-4 0  9995
2 23466 082.9249 072.3153 0034789 012.0076 050.4381 13.74430705292148
Epoch (UTC): 30 October 2020 07:20:01
Eccentricity: 0.0034789
inclination: 82.9249°
perigee height: 958 km
apogee height: 1009 km
right ascension of ascending node: 72.3153°
argument of perigee: 12.0076°
revolutions per day: 13.74430705
mean anomaly at epoch: 50.4381°
orbit number at epoch: 29214

The dashed part of the orbit path shows where the satellite is in the earth's shadow,  

DLR